This is the latest recevied weather packets stored in our database for station/object W8DRH-13. If no packets are shown the sender has not sent any weather packets the latest 10 day(s).
| Time | Temp. | Humidity | Pressure | Rain* | Wind** | Luminosity | Snow |
|---|---|---|---|---|---|---|---|
| 1777415752 | 18.33° C | 73% | 1011 hPa | 0 mm | - | 201 W/m² | - |
| 1777415449 | 18.89° C | 73% | 1011 hPa | 0 mm | - | 219 W/m² | - |
| 1777415144 | 18.89° C | 72% | 1011.4 hPa | 0 mm | - | 228 W/m² | - |
| 1777414839 | 18.89° C | 71% | 1011.3 hPa | 0 mm | - | 148 W/m² | - |
| 1777414534 | 18.33° C | 72% | 1011.4 hPa | 0 mm | - | 329 W/m² | - |
| 1777414234 | 18.89° C | 72% | 1011.3 hPa | 0 mm | - | 183 W/m² | - |
| 1777413929 | 19.44° C | 72% | 1010.8 hPa | 0 mm | - | 304 W/m² | - |
| 1777413624 | 18.89° C | 71% | 1010.6 hPa | 0 mm | - | 302 W/m² | - |
| 1777413321 | 19.44° C | 70% | 1010.7 hPa | 0 mm | - | 316 W/m² | - |
| 1777413016 | 19.44° C | 70% | 1010.4 hPa | 0 mm | - | 324 W/m² | - |
| 1777412715 | 19.44° C | 70% | 1010.3 hPa | 0 mm | - | 337 W/m² | - |
| 1777412414 | 19.44° C | 71% | 1010.4 hPa | 0 mm | - | 343 W/m² | - |
| 1777412108 | 19.44° C | 70% | 1010.4 hPa | 0 mm | - | 366 W/m² | - |
| 1777411804 | 20° C | 70% | 1010.4 hPa | 0 mm | - | 360 W/m² | - |
| 1777411502 | 19.44° C | 71% | 1010.6 hPa | 0 mm | - | 399 W/m² | - |
| 1777411201 | 19.44° C | 71% | 1010.4 hPa | 0 mm | - | 407 W/m² | - |
| 1777410897 | 20° C | 70% | 1010.7 hPa | 0 mm | - | 407 W/m² | - |
| 1777410590 | 20° C | 70% | 1010.6 hPa | 0 mm | - | 453 W/m² | - |
| 1777410285 | 19.44° C | 69% | 1010.6 hPa | 0 mm | - | 479 W/m² | - |
| 1777409980 | 20° C | 69% | 1010.5 hPa | 0 mm | - | 526 W/m² | - |
| 1777409680 | 20° C | 69% | 1010.6 hPa | 0 mm | - | 519 W/m² | - |
| 1777409377 | 20° C | 71% | 1010.6 hPa | 0 mm | - | 518 W/m² | - |
| 1777409072 | 20° C | 71% | 1010.7 hPa | 0 mm | - | 510 W/m² | - |
| 1777408769 | 19.44° C | 72% | 1010.6 hPa | 0 mm | - | 565 W/m² | - |
| 1777408465 | 19.44° C | 71% | 1010.5 hPa | 0 mm | - | 574 W/m² | - |
* Rain latest hour (hover to see other rain measurements)
** Current wind speed in m/s (hover to see current wind gust speed)